OneWeb SL0683

operational
NORAD ID: 56719 Int'l Des: 2023-068 Owner: ONEWEBN Country: UK Constellation: oneweb
LEOCIRCULARPOLARONEWEB_TYPE

Über OneWeb SL0683

Beschreibung wird geladen...

Live-Position

3D-Globus wird geladen...

Nächste Überflüge

Höhenverlauf

Altitude vs Time

uPlot chart will show altitude changes over time

Zweizeiliger Elementsatz

1 56719U 23068K 26063.09629494 .00000006 00000-0 -17621-4 0 9995
2 56719 87.8956 280.1699 0001738 80.5294 279.6033 13.15547548135603
Epoch: 4. März 2026 • Age: 11 hours

Aktueller Status

Höhe 1207.3 km
Geschwindigkeit 7.25 km/s
Subsatellitenpunkt -13.06°S, 53.21°W
Startdatum 20. Mai 2023
Alter 2.7 years
Typ internet

Technische Details

Klassifizierung Payload
Masse 148.00 kg
Trockenmasse 140.00 kg
Gesamtmasse 148.00 kg
Länge 1.30 m
Durchmesser 1.00 m
Spannweite 5.00 m
Form Trapezoid+2 pan
Hersteller ONEWUS
Bus-Typ ARROW
Phasenstatus In Orbit
Besitzer/Staat ONEWEBN/UK

Große Konstellationen

Loading constellations...